Weather History for Fargo, ND

Change the Weather History Date:

Monday, September 23, 2013

  Actual Average Record
Temperature  
Mean Temperature 72 °F 56 °F  
Max Temperature 80 °F 67 °F 93 °F (2007)
Min Temperature 63 °F 44 °F 23 °F (1887)
Degree Days  
Heating Degree Days 0 10  
Month to date heating degree days 69 140  
Since 1 July heating degree days 103 190  
Cooling Degree Days 7 1  
Month to date cooling degree days 70 41  
Year to date cooling degree days 688 546  
Growing Degree Days 22 (Base 50)    
Moisture  
Dew Point 51 °F    
Average Humidity 51    
Maximum Humidity 67    
Minimum Humidity 35    
Precipitation  
Precipitation 0.00 in 0.07 in 1.60 in (2010)
Month to date precipitation 3.11 2.04  
Year to date precipitation 25.03 18.10  
Snow  
Snow 0.00 in 0.00 in T in (1984)
Month to date snowfall 0.0 0.0  
Since 1 July snowfall 0.0 0.0  
Since 1 September snowfall 0.0 0.0  
Snow Depth 0.00 in    
Sea Level Pressure  
Sea Level Pressure 29.67 in    
Wind  
Wind Speed 20 mph (SSE)    
Max Wind Speed 28 mph    
Max Gust Speed 37 mph    
Visibility 10 miles    
Events      
T = Trace of Precipitation, MM = Missing Value Source: NWS Daily Summary

Daily Weather History Graph

Daily Weather History Graph

Search for Another Location

Airport:

Trip Planner

Search our weather history database for the weather conditions in past years. The results will help you decide how hot, cold, wet, or windy it might be!

Date:

Astronomy

Sep. 23, 2013 Rise Set
Actual Time 7:15 AM CDT 7:22 PM CDT
Civil Twilight 6:45 AM CDT 7:52 PM CDT
Nautical Twilight 6:09 AM CDT 8:28 PM CDT
Astronomical Twilight 5:33 AM CDT 9:04 PM CDT
Moon 9:37 PM CDT (9/23) 11:53 AM CDT (9/23)
Length of Visible Light 13h 07m
Length of Day
12h 06m
Waning Gibbous, 81% of the Moon is Illuminated
Sep 23
Waning Gibbous
Sep 26
Last Quarter
Oct 4
New
Oct 11
First Quarter
Oct 18
Full

Hourly Weather History & Observations

Time (CDT) Temp. Dew Point Humidity Pressure Visibility Wind Dir Wind Speed Gust Speed Precip Events Conditions
12:53 AM 68.0 °F 51.1 °F 55% 29.63 in 10.0 mi SSE 19.6 mph 26.5 mph N/A   Clear
1:53 AM 66.9 °F 50.0 °F 54% 29.63 in 10.0 mi SSE 19.6 mph 27.6 mph N/A   Clear
2:53 AM 66.0 °F 50.0 °F 56% 29.62 in 10.0 mi SSE 18.4 mph 29.9 mph N/A   Clear
3:53 AM 64.9 °F 51.1 °F 61% 29.62 in 10.0 mi SSE 19.6 mph 29.9 mph N/A   Clear
4:53 AM 66.0 °F 50.0 °F 56% 29.63 in 10.0 mi SSE 23.0 mph 33.4 mph N/A   Clear
5:53 AM 64.0 °F 51.1 °F 63% 29.63 in 10.0 mi SSE 20.7 mph 28.8 mph N/A   Clear
6:53 AM 63.0 °F 51.1 °F 65% 29.65 in 10.0 mi SSE 19.6 mph 28.8 mph N/A   Clear
7:53 AM 63.0 °F 50.0 °F 63% 29.65 in 10.0 mi SSE 20.7 mph 29.9 mph N/A   Clear
8:53 AM 64.9 °F 50.0 °F 58% 29.66 in 10.0 mi South 25.3 mph 35.7 mph N/A   Clear
9:53 AM 66.9 °F 50.0 °F 54% 29.67 in 10.0 mi South 20.7 mph 32.2 mph N/A   Clear
10:53 AM 70.0 °F 50.0 °F 49% 29.67 in 10.0 mi SSE 26.5 mph 33.4 mph N/A   Clear
11:53 AM 73.0 °F 50.0 °F 44% 29.67 in 10.0 mi South 19.6 mph 32.2 mph N/A   Clear
12:53 PM 75.0 °F 50.0 °F 41% 29.66 in 10.0 mi SSE 23.0 mph 32.2 mph N/A   Clear
1:53 PM 77.0 °F 51.1 °F 40% 29.65 in 10.0 mi SSE 20.7 mph 31.1 mph N/A   Clear
2:53 PM 78.1 °F 51.1 °F 39% 29.65 in 10.0 mi SSE 24.2 mph 31.1 mph N/A   Clear
3:53 PM 80.1 °F 51.1 °F 36% 29.65 in 10.0 mi SSE 20.7 mph 34.5 mph N/A   Clear
4:53 PM 80.1 °F 50.0 °F 35% 29.66 in 10.0 mi SSE 24.2 mph 34.5 mph N/A   Clear
5:53 PM 77.0 °F 51.1 °F 40% 29.67 in 10.0 mi SSE 21.9 mph 29.9 mph N/A   Clear
6:53 PM 75.0 °F 51.1 °F 43% 29.68 in 10.0 mi SSE 18.4 mph 29.9 mph N/A   Clear
7:53 PM 72.0 °F 51.1 °F 48% 29.70 in 10.0 mi SSE 17.3 mph 24.2 mph N/A   Clear
8:53 PM 70.0 °F 50.0 °F 49% 29.72 in 10.0 mi SSE 18.4 mph 25.3 mph N/A   Clear
9:53 PM 69.1 °F 50.0 °F 51% 29.74 in 10.0 mi SSE 16.1 mph 26.5 mph N/A   Clear
10:53 PM 68.0 °F 50.0 °F 52% 29.76 in 10.0 mi SSE 15.0 mph 25.3 mph N/A   Clear
11:53 PM 66.0 °F 50.0 °F 56% 29.80 in 10.0 mi SSW 13.8 mph 24.2 mph N/A   Mostly Cloudy